Preview of NWS' New Version of Forecast
This preview is not operational and should not be used for support decisions.

Regional Weather Roundup (RWR)

Issued by Gray - Portland, ME (GYX)

                            
810 
ASUS41 KGYX 200305
RWRGYX
WEATHER ROUNDUP FOR MAINE AND NEW HAMPSHIRE
NATIONAL WEATHER SERVICE GRAY ME
1100 PM EDT THU APR 19 2018

MEZ002-005-006-010-012-015-018-020-021-024-026-027-029-200400-
MAINE
  
CITY           SKY/WX    TMP DP  RH WIND       PRES   REMARKS
PORTLAND       CLOUDY    40  32  73 NW8       29.77R                  
SANFORD        MOCLDY    37  31  78 W7        29.78S                  
BAR HARBOR     LGT RAIN  38  36  92 NW8       29.71R                  
WISCASSET      CLOUDY    39  33  79 CALM      29.75F                  
ROCKLAND       LGT RAIN  39  34  82 NW6       29.73R                  
FRYEBURG       FAIR      32  32 100 CALM      29.77S                  
LEWISTONAUBURN CLOUDY    39  27  62 NW8       29.76R                  
AUGUSTA        CLOUDY    38  30  73 N7        29.74S                  
WATERVILLE     CLOUDY    39  28  64 N8        29.71F                  
BANGOR         LGT RAIN  39  33  79 NW9       29.72S                  
GREENVILLE       N/A     31  31 100 NW12      29.68S                  
MILLINOCKET    CLOUDY    38  30  73 W5        29.72S                  
HOULTON        CLOUDY    35  33  92 CALM      29.67F                  
PRESQUE ISLE   LGT RAIN  36  34  92 NW6       29.70F                  
FRENCHVILLE    LGT SNOW  36  32  85 N7        29.70S FOG              
CARIBOU        LGT RAIN  36  31  82 N5        29.69S                  
$$

NHZ002-005-008-009-011-012-014-200400-
NEW HAMPSHIRE
  
CITY           SKY/WX    TMP DP  RH WIND       PRES   REMARKS
PORTSMOUTH     CLOUDY    40  28  62 NW14      29.77S                  
ROCHESTER      MOCLDY    38  29  70 NW15      29.77S                  
NASHUA         CLOUDY    40  28  62 NW12      29.82R                  
MANCHESTER     CLOUDY    42  26  53 NW12G20   29.81R                  
CONCORD        MOCLDY    38  28  67 NW10      29.81R                  
LACONIA        CLOUDY    36  28  73 W8        29.79F                  
PLYMOUTH       FLURRIES  34  31  89 W7        29.81S                  
BERLIN         CLOUDY    32  30  92 CALM      29.76S                  
WHITEFIELD     LGT SNOW  33  31  92 SW5       29.78S FOG              
JAFFREY        CLOUDY    35  28  75 NW3       29.81S                  
LEBANON        CLOUDY    37  26  64 N7        29.84S                  
MT WASHINGTON  SNOW      12  12 100 NW33G44     N/A  VSB 0   WCI -10  
$$

VTZ005-007-008-200400-
VERMONT
  
CITY           SKY/WX    TMP DP  RH WIND       PRES   REMARKS
ST JOHNSBURY     N/A     33  33 100 MISG      29.80S                  
MONTPELIER     LGT SNOW  31  29  92 NW17G23   29.86S FOG     WCI  19  
BURLINGTON     FLURRIES  35  29  78 NW10      29.89S                  
$$

MAZ007-012-024-CTZ003-RIZ002-NYZ038-NYZ072-200400-
SOUTHERN NEW ENGLAND AND NY
  
CITY           SKY/WX    TMP DP  RH WIND       PRES   REMARKS
BOSTON         MOCLDY    41  31  67 NW10      29.81R                  
WORCESTER      CLOUDY    34  29  82 W14G23    29.81R                  
NANTUCKET      CLOUDY    41  40  96 W9        29.80S                  
PROVIDENCE     CLOUDY    40  33  76 NW12      29.85R                  
HARTFORD       CLOUDY    38  27  64 NW13      29.90R                  
ALBANY         CLOUDY    36  25  64 W13       29.95R                  
NEW YORK CITY  FAIR      41  25  53 NW16G23   30.00R                  
$$

ANZ081-ANZ082-ANZ150-NHZ014-MEZ023>029-200400-
COASTAL MARINE OBSERVATIONS
  
STATION/POSITION TIME  TEMP    WIND        PRES    WAVE
                       AIR SEA DIR/SP/G            HT/PER
                 (UTC) (F)     (DEG/KT/KT) (MB)    (FT/S)
MOUNT DESERT ROC 0300   39     280/  7/  7 1005.9R
MATINICUS ROCK   0200   39     290/ 14/ 15 1005.7S
ISLE OF SHOALS   0200   40     350/  9/ 11 1008.2R
JEFFREYS LEDGE   0236      41                N/A     3/10
CASHES LEDGE BUO 0250   39 40              1006.5F   3/ 8
$$

.............KEY..............
   WCI - WIND CHILL
   TC  - TEMPERATURE IN CELSIUS
   VSB - VISIBILITY IN MILES
   HX  - HEAT INDEX
   FAIR- INDICATES FEW OR NO CLOUDS BELOW 12,000 FT, WITH NO 
         SIGNIFICANT WEATHER AND/OR OBSTRUCTIONS TO VISIBILITY.